Warsaw, IN

4:55 AM EDT on May 28, 2017 (GMT -0400)
Warsaw Municipal

Weather History for KASW - November, 2013

Change the Weather History Date:

Saturday, November 23, 2013

  Actual Average Record
Temperature  
Mean Temperature 24 °F -  
Max Temperature 30 °F 45 °F 66 °F (2003)
Min Temperature 19 °F 29 °F 8 °F (1970)
Degree Days  
Heating Degree Days 40    
Moisture  
Dew Point 19 °F    
Average Humidity 78    
Maximum Humidity 93    
Minimum Humidity 55    
Precipitation  
Precipitation 0.00 in - - ()
Sea Level Pressure  
Sea Level Pressure 30.45 in    
Wind  
Wind Speed 9 mph (NW)    
Max Wind Speed 22 mph    
Max Gust Speed 30 mph    
Visibility 10 miles    
Events Snow    
Averages and records for this station are not official NWS values.
T = Trace of Precipitation, MM = Missing Value Source: NWS Daily Summary

Daily Weather History Graph

Daily Weather History Graph

Search for Another Location

Airport or City:

Trip Planner

Search our weather history database for the weather conditions in past years. The results will help you decide how hot, cold, wet, or windy it might be!

Date:

Astronomy

Nov. 23, 2013 Rise Set
Actual Time 7:41 AM EST 5:18 PM EST
Civil Twilight 7:10 AM EST 5:48 PM EST
Nautical Twilight 6:37 AM EST 6:22 PM EST
Astronomical Twilight 6:04 AM EST 6:55 PM EST
Moon 10:47 PM EST (11/23) 11:56 AM EST (11/23)
Length of Visible Light 10h 37m
Length of Day
9h 37m
Waning Gibbous, 70% of the Moon is Illuminated
Nov 23
Waning Gibbous
Nov 25
Last Quarter
Dec 2
New
Dec 9
First Quarter
Dec 17
Full

Hourly Weather History & Observations

Time (EST) Temp. Windchill Dew Point Humidity Pressure Visibility Wind Dir Wind Speed Gust Speed Precip Events Conditions
12:15 AM 28.4 °F 24.6 °F 26.6 °F 93% 30.43 in 10.0 mi West 3.5 mph - N/A   Clear
12:35 AM 26.6 °F 20.0 °F 23.0 °F 86% 30.42 in 10.0 mi West 5.8 mph - N/A   Clear
12:55 AM 28.4 °F 23.3 °F 26.6 °F 93% 30.42 in 10.0 mi WSW 4.6 mph - N/A   Clear
1:15 AM 28.4 °F 23.3 °F 26.6 °F 93% 30.41 in 10.0 mi WSW 4.6 mph - N/A   Clear
1:35 AM 26.6 °F 19.1 °F 24.8 °F 93% 30.41 in 10.0 mi West 6.9 mph - N/A   Clear
1:55 AM 26.6 °F 19.1 °F 24.8 °F 93% 30.40 in 10.0 mi West 6.9 mph - N/A   Clear
2:15 AM 26.6 °F 20.0 °F 24.8 °F 93% 30.39 in 10.0 mi WSW 5.8 mph - N/A   Clear
2:35 AM 26.6 °F 20.0 °F 24.8 °F 93% 30.39 in 10.0 mi West 5.8 mph - N/A   Clear
2:55 AM 26.6 °F 18.2 °F 23.0 °F 86% 30.39 in 10.0 mi West 8.1 mph - N/A   Clear
3:15 AM 26.6 °F 18.2 °F 23.0 °F 86% 30.39 in 10.0 mi West 8.1 mph - N/A   Clear
3:35 AM 26.6 °F 18.2 °F 23.0 °F 86% 30.38 in 10.0 mi West 8.1 mph - N/A   Clear
3:55 AM 26.6 °F 19.1 °F 23.0 °F 86% 30.38 in 10.0 mi West 6.9 mph - N/A   Clear
4:15 AM 26.6 °F 19.1 °F 23.0 °F 86% 30.37 in 10.0 mi West 6.9 mph - N/A   Clear
4:35 AM 26.6 °F 19.1 °F 23.0 °F 86% 30.37 in 10.0 mi West 6.9 mph - N/A   Clear
4:55 AM 26.6 °F 16.8 °F 23.0 °F 86% 30.37 in 10.0 mi West 10.4 mph - N/A   Clear
5:15 AM 26.6 °F 18.2 °F 21.2 °F 80% 30.37 in 10.0 mi West 8.1 mph - N/A   Clear
5:35 AM 24.8 °F 16.1 °F 21.2 °F 86% 30.37 in 10.0 mi West 8.1 mph - N/A   Clear
5:55 AM 24.8 °F 16.1 °F 21.2 °F 86% 30.36 in 10.0 mi West 8.1 mph - N/A   Clear
6:15 AM 24.8 °F 16.1 °F 21.2 °F 86% 30.36 in 10.0 mi West 8.1 mph - N/A   Clear
6:35 AM 24.8 °F 17.9 °F 21.2 °F 86% 30.36 in 10.0 mi West 5.8 mph - N/A   Clear
6:55 AM 23.0 °F 14.7 °F 21.2 °F 93% 30.36 in 10.0 mi West 6.9 mph - N/A   Clear
7:15 AM 23.0 °F 13.9 °F 21.2 °F 93% 30.36 in 10.0 mi West 8.1 mph - N/A   Clear
7:35 AM 23.0 °F 13.1 °F 21.2 °F 93% 30.36 in 10.0 mi West 9.2 mph - N/A   Clear
7:55 AM 23.0 °F 13.1 °F 19.4 °F 86% 30.36 in 10.0 mi West 9.2 mph - N/A   Clear
8:15 AM 24.8 °F 14.6 °F 21.2 °F 86% 30.37 in 10.0 mi West 10.4 mph - N/A   Clear
8:35 AM 26.6 °F 16.2 °F 21.2 °F 80% 30.37 in 10.0 mi West 11.5 mph - N/A   Clear
8:55 AM 26.6 °F 16.8 °F 23.0 °F 86% 30.37 in 10.0 mi West 10.4 mph - N/A   Clear
9:15 AM 28.4 °F 18.0 °F 23.0 °F 80% 30.38 in 10.0 mi WNW 12.7 mph - N/A   Clear
9:35 AM 28.4 °F 18.5 °F 23.0 °F 80% 30.38 in 10.0 mi WNW 11.5 mph 17.3 mph N/A   Mostly Cloudy
9:55 AM 30.2 °F 19.8 °F 24.8 °F 80% 30.39 in 10.0 mi WNW 13.8 mph - N/A Snow Light Snow
10:15 AM 30.2 °F 19.8 °F 24.8 °F 80% 30.39 in 10.0 mi WNW 13.8 mph - N/A   Scattered Clouds
10:35 AM 30.2 °F 19.3 °F 24.8 °F 80% 30.40 in 5.0 mi NW 15.0 mph 26.5 mph N/A Snow Light Snow
10:55 AM 30.2 °F 18.5 °F 23.0 °F 75% 30.40 in 10.0 mi NW 17.3 mph 21.9 mph N/A Snow Light Snow
11:15 AM 30.2 °F 21.3 °F 21.2 °F 69% 30.40 in 10.0 mi NNW 10.4 mph 23.0 mph N/A   Overcast
11:35 AM 30.2 °F 18.9 °F 21.2 °F 69% 30.41 in 10.0 mi NNW 16.1 mph 25.3 mph N/A   Overcast
11:55 AM 28.4 °F 16.6 °F 17.6 °F 64% 30.41 in 10.0 mi NNW 16.1 mph 25.3 mph N/A   Overcast
12:15 PM 30.2 °F 19.8 °F 17.6 °F 60% 30.41 in 10.0 mi NNW 13.8 mph 24.2 mph N/A   Mostly Cloudy
12:35 PM 30.2 °F 18.5 °F 21.2 °F 69% 30.41 in 10.0 mi NW 17.3 mph 23.0 mph N/A   Mostly Cloudy
12:55 PM 28.4 °F 16.2 °F 17.6 °F 64% 30.41 in 10.0 mi NW 17.3 mph 23.0 mph N/A   Mostly Cloudy
1:15 PM 28.4 °F 17.0 °F 17.6 °F 64% 30.41 in 10.0 mi NW 15.0 mph 24.2 mph N/A   Mostly Cloudy
1:35 PM 30.2 °F 17.4 °F 15.8 °F 55% 30.42 in 10.0 mi NNW 20.7 mph 27.6 mph N/A   Mostly Cloudy
1:55 PM 26.6 °F 13.4 °F 19.4 °F 74% 30.43 in 7.0 mi NW 18.4 mph 25.3 mph N/A Snow Light Snow
2:15 PM 26.6 °F 12.7 °F 19.4 °F 74% 30.43 in 10.0 mi NW 20.7 mph 26.5 mph N/A   Mostly Cloudy
2:35 PM 30.2 °F 17.4 °F 17.6 °F 60% 30.43 in 10.0 mi WNW 20.7 mph 25.3 mph N/A   Scattered Clouds
2:55 PM 28.4 °F 14.7 °F 17.6 °F 64% 30.44 in 10.0 mi NW 21.9 mph 27.6 mph N/A Snow Light Snow
3:15 PM 26.6 °F 14.3 °F 19.4 °F 74% 30.45 in 5.0 mi NW 16.1 mph 25.3 mph N/A   Haze
3:35 PM 26.6 °F 14.7 °F 17.6 °F 69% 30.45 in 10.0 mi NW 15.0 mph 24.2 mph N/A   Scattered Clouds
3:55 PM 26.6 °F 15.7 °F 17.6 °F 69% 30.46 in 10.0 mi NW 12.7 mph - N/A   Scattered Clouds
4:15 PM 26.6 °F 13.1 °F 14.0 °F 59% 30.47 in 10.0 mi NW 19.6 mph 28.8 mph N/A   Scattered Clouds
4:35 PM 24.8 °F 13.4 °F 14.0 °F 64% 30.48 in 10.0 mi NNW 12.7 mph 29.9 mph N/A   Scattered Clouds
4:55 PM 23.0 °F 9.2 °F 14.0 °F 68% 30.49 in 10.0 mi NNW 17.3 mph 29.9 mph N/A   Scattered Clouds
5:15 PM 23.0 °F 11.1 °F 14.0 °F 68% 30.50 in 10.0 mi NNW 12.7 mph 26.5 mph N/A   Mostly Cloudy
5:35 PM 23.0 °F 14.7 °F 14.0 °F 68% 30.51 in 10.0 mi NNW 6.9 mph 12.7 mph N/A   Mostly Cloudy
5:55 PM 23.0 °F 8.7 °F 14.0 °F 68% 30.52 in 10.0 mi NNW 18.4 mph 23.0 mph N/A   Overcast
6:15 PM 23.0 °F 10.1 °F 12.2 °F 63% 30.52 in 10.0 mi NNW 15.0 mph 25.3 mph N/A   Mostly Cloudy
6:35 PM 23.0 °F 11.1 °F 12.2 °F 63% 30.53 in 10.0 mi NNW 12.7 mph 18.4 mph N/A   Scattered Clouds
6:55 PM 23.0 °F 10.6 °F 12.2 °F 63% 30.53 in 10.0 mi NNW 13.8 mph 17.3 mph N/A   Scattered Clouds
7:15 PM 23.0 °F 10.6 °F 12.2 °F 63% 30.54 in 10.0 mi NNW 13.8 mph 21.9 mph N/A   Mostly Cloudy
7:35 PM 23.0 °F 10.6 °F 12.2 °F 63% 30.54 in 10.0 mi NNW 13.8 mph 23.0 mph N/A   Mostly Cloudy
7:55 PM 23.0 °F 11.1 °F 12.2 °F 63% 30.55 in 10.0 mi NNW 12.7 mph 21.9 mph N/A   Mostly Cloudy
8:15 PM 21.2 °F 7.3 °F 14.0 °F 74% 30.56 in 10.0 mi North 16.1 mph - N/A   Mostly Cloudy
8:35 PM 21.2 °F 12.6 °F 15.8 °F 80% 30.57 in 10.0 mi NNE 6.9 mph 16.1 mph N/A   Overcast
8:55 PM 19.4 °F 8.6 °F 15.8 °F 86% 30.57 in 7.0 mi NNE 9.2 mph - N/A Snow Light Snow
9:15 PM 19.4 °F 8.6 °F 14.0 °F 80% 30.58 in 10.0 mi North 9.2 mph 16.1 mph N/A   Mostly Cloudy
9:35 PM 19.4 °F 10.4 °F 14.0 °F 80% 30.58 in 10.0 mi North 6.9 mph - N/A Snow Light Snow
9:55 PM 19.4 °F 9.5 °F 14.0 °F 80% 30.58 in 7.0 mi North 8.1 mph - N/A Snow Light Snow
10:15 PM 19.4 °F 10.4 °F 14.0 °F 80% 30.58 in 7.0 mi North 6.9 mph - N/A Snow Light Snow
10:35 PM 19.4 °F 11.5 °F 14.0 °F 80% 30.58 in 7.0 mi North 5.8 mph - N/A Snow Light Snow
10:55 PM 19.4 °F 11.5 °F 14.0 °F 80% 30.58 in 10.0 mi North 5.8 mph - N/A Snow Light Snow
11:15 PM 19.4 °F 10.4 °F 14.0 °F 80% 30.59 in 7.0 mi North 6.9 mph - N/A Snow Light Snow
11:35 PM 19.4 °F 11.5 °F 14.0 °F 80% 30.59 in 7.0 mi NNW 5.8 mph - N/A Snow Light Snow
11:55 PM 19.4 °F 14.3 °F 14.0 °F 80% 30.59 in 5.0 mi NNW 3.5 mph - N/A Snow Light Snow